Regional Weather Roundup
Issued by NWS Sterling, VA

Home | Current Version | Previous Version | Text Only | Print | Product List | Glossary Off
Versions: 1 2 3 4 5 6 7 8 9 10 11 12 13 14 15 16 17 18 19 20 21 22 23 24 25 26 27 28 29 30 31 32 33 34 35 36 37 38 39 40 41 42 43 44 45 46 47 48 49 50

000
ASUS41 KLWX 240210
RWRLWX

REGIONAL WEATHER ROUNDUP
NATIONAL WEATHER SERVICE BALTIMORE MD/WASHINGTON DC
1000 PM EDT THU MAR 23 2017

Note: "FAIR" indicates few or no clouds below 12,000 feet
with no significant weather and/or obstructions to visibility.
 TC=TEMPERATURE CELSIUS

 * =Non NWS site. Station does not report precipitation (e.g. rain,
    snow, etc.), thunder, or fog.

DCZ001-MDZ009-015-VAZ040>042-051-053>054-240300-
WASHINGTON METRO

CITY           SKY/WX    TMP DP  RH WIND       PRES   REMARKS
WASHINGTON NAT PTCLDY    42  19  39 S9        30.54R
DULLES         CLEAR     40  14  34 S8        30.51R
ANDREWS AFB    CLEAR     35  20  54 S9        30.53R WCI  27
FT BELVOIR     CLEAR     40  18  42 SE7       30.53R
QUANTICO       CLEAR     41  26  55 S14       30.55R
COLLEGE PARK*  CLEAR     36  19  51 CALM      30.54R
LEESBURG*      CLEAR     43  18  36 S8        30.51R
MANASSAS*      CLEAR     38  18  44 SE8       30.52R
GAITHERSBURG*  CLEAR     36   9  32 E6        30.56R

$$

MDZ006>007-011-014-240300-
BALTIMORE METRO

CITY           SKY/WX    TMP DP  RH WIND       PRES   REMARKS
BWI AIRPORT    CLEAR     36  21  54 E3        30.54R
MD SCIENCE CTR   N/A     40  19  43 MISG      30.55R
MARTIN STATE   CLEAR     39  25  56 CALM      30.57R
ANNAPOLIS      CLEAR     41  24  51 SE8       30.55R
FORT MEADE*    CLEAR     32  21  64 CALM      30.57R

$$

MDZ012-015-019>023-240300-
MARYLAND EASTERN SHORE

CITY           SKY/WX    TMP DP  RH WIND       PRES   REMARKS
OCEAN CITY     CLEAR     36  26  67 S5        30.59S
SALISBURY      CLEAR     29  23  78 E6        30.56F
BAY BRIDGE AP* CLEAR     39  21  48 S9        30.55R
CAMBRIDGE*     CLOUDY    32  21  64 CALM      30.57R

$$

MDZ017>025-240300-
SOUTHERN MARYLAND

CITY           SKY/WX    TMP DP  RH WIND       PRES   REMARKS
PATUXENT RIVER CLEAR     35  16  45 S7        30.56R
ST INIGOES     CLEAR     36  16  44 SE3       30.56R
LEONARDTOWN*   CLEAR     34  18  51 CALM      30.57S

$$

MDZ003>005-240300-
NORTH CENTRAL MARYLAND

CITY           SKY/WX    TMP DP  RH WIND       PRES   REMARKS
FREDERICK*     NOT AVBL
HAGERSTOWN APT CLEAR     40  10  29 E6        30.47R
WESTMINSTER*   CLEAR     37  16  41 E3        30.50R

$$

MDZ501>502-240300-
WESTERN MARYLAND

CITY           SKY/WX    TMP DP  RH WIND       PRES   REMARKS
OAKLAND*       CLEAR     34  10  37 SE12      30.34R WCI  25
CUMBERLAND*    CLEAR     43  12  28 CALM      30.47R

$$

VAZ025>031-240300-
SHENANDOAH VALLEY

CITY           SKY/WX    TMP DP  RH WIND       PRES   REMARKS
WINCHESTER*    CLEAR     37  14  38 CALM      30.46R
FRONT ROYAL*     N/A    N/A N/A N/A MISG        N/A
LURAY*         CLEAR     41  21  45 SW7       30.45S
NEW MARKET*    CLEAR     35  19  51 SW3       30.44R
STAUNTON*      CLEAR     40  17  39 SW5       30.48R
WAYNESBORO*    CLEAR     38  18  44 S3        30.46R

$$

WVZ021-048>050-054>055-240300-
EASTERN WEST VIRGINIA PANHANDLE

CITY           SKY/WX    TMP DP  RH WIND       PRES   REMARKS
MARTINSBURG    CLEAR     38  12  34 CALM      30.47R
PETERSBURG*    CLEAR     37  27  67 CALM      30.41F

$$

VAZ036>039-050-240300-
CENTRAL FOOTHILLS

CITY           SKY/WX    TMP DP  RH WIND       PRES   REMARKS
CHARLOTTESVILL CLEAR     41  18  39 S9        30.49R
CULPEPER*      CLEAR     36  19  49 S3        30.51S
ORANGE*        CLEAR     34  21  60 CALM      30.51S
GORDONSVILLE*  CLEAR     33  22  65 CALM      30.50R
WARRENTON*     CLEAR     38  15  38 SE6       30.49F

$$

VAZ055>057-240300-
NORTH AND CENTRAL PIEDMONT

CITY           SKY/WX    TMP DP  RH WIND       PRES   REMARKS
FREDERICKSBRG* CLEAR     39  24  54 SE7       30.52S
STAFFORD*      CLEAR     36  20  52 SE3       30.57R

$$

NCZ024-NYZ072-PAZ021-071-VAZ022-071-240300-
OTHER REGIONAL OBSERVATIONS

CITY           SKY/WX    TMP DP  RH WIND       PRES   REMARKS
NEW YORK CITY  CLEAR     40  -1  18 CALM      30.58R
PHILADELPHIA   CLEAR     38  15  39 S5        30.59R
PITTSBURGH     PTCLDY    43   5  20 E5        30.32F
ROANOKE        CLEAR     43  18  36 SE8       30.49R
RICHMOND       CLEAR     39  21  48 SE7       30.55R
RALEIGH        CLEAR     46  20  35 SE6       30.53R

$$

ANZ530>537-240300-
MARINE OBSERVATIONS

STATION/POSITION TIME  TEMP    WIND        PRES
                       AIR SEA DIR/SP/G
                 (UTC) (F)     (DEG/KT/KT) (MB)
THOMAS PT LIGHT  0200   41 43  160/ 17/ 18   N/A
BALT KEY BRIDGE  0148   40     160/  9/ 10 1034.2R
COVE POINT       0148   39     210/ 11/ 17 1035.3R
LEWISETTA        0148   38 48  180/  7/  9 1034.9R
SOLOMONS ISLAND  0148   38 45  190/  6/  7   N/A
PINEY POINT      0148          180/ 10/ 12   N/A

$$




USA.gov is the U.S. government's official web portal to all federal, state and local government web resources and services.